Theta_e
326 325 321 319 318 317 315 314 314 313 315 314 313 311 310 308 307 305 304 303 301 301 301 301 302 303 304 304 304 305 306 307 309 310 310 308 307 310 315 322 325 326 326 327 328 328 327 325 323 321 321 320 320 320 319 318 317 316 316 316 315 314 314 313 313 313 313 313 312 313 312 312 311 312 312 312 312 312 312 312 312 312 312 312 312
327 327 325 324 324 318 316 315 314 314 315 313 312 310 309 308 307 305 304 302 300 300 299 299 300 300 300 302 302 303 303 304 306 308 309 308 306 306 311 315 320 321 322 322 323 323 323 323 322 323 324 323 321 318 317 316 316 316 315 315 314 314 314 313 312 312 312 311 311 311 311 311 311 311 311 311 311 312 311 311 311 311 311 311 311
328 328 327 327 325 318 316 316 315 315 315 313 312 310 308 307 306 304 302 300 299 299 298 298 297 298 298 300 300 300 300 300 301 305 306 305 305 304 305 310 314 318 320 320 320 320 321 320 321 320 321 320 321 318 317 316 316 315 315 314 314 314 313 313 312 311 312 312 310 310 310 310 310 310 311 311 310 310 310 310 310 310 310 310 310
329 329 327 327 325 319 317 316 315 314 314 312 311 310 308 307 306 303 301 299 298 297 297 296 295 296 296 296 298 298 298 298 298 299 301 302 303 302 302 303 307 310 315 317 318 318 318 319 319 318 320 319 320 318 317 316 315 314 313 314 314 312 312 312 311 311 312 311 310 310 310 309 310 310 310 310 310 309 309 309 309 309 309 309 309
330 329 326 327 326 321 319 317 315 315 313 312 310 309 307 305 304 302 300 298 297 297 297 295 294 294 294 294 295 295 296 296 295 295 295 296 298 299 300 300 300 303 307 312 316 317 317 317 316 316 316 316 317 316 316 316 315 315 313 313 312 312 311 310 310 310 310 311 311 310 309 309 309 309 309 309 308 309 308 308 308 308 308 308 308
332 331 329 327 326 323 321 317 315 314 312 311 309 307 305 303 301 300 300 297 296 295 294 293 292 292 293 293 294 294 294 294 293 294 293 293 293 294 294 296 296 297 298 305 310 314 316 316 316 315 315 314 314 314 315 315 314 314 312 311 310 310 311 310 309 310 309 310 310 309 308 308 308 307 308 308 308 307 307 307 307 308 307 308 308
333 332 331 328 327 325 321 318 316 313 312 311 308 307 305 303 301 299 297 296 295 295 294 293 292 293 292 293 293 293 293 293 293 293 293 293 293 293 293 291 291 293 294 294 302 309 312 314 314 314 314 313 313 313 314 313 313 312 311 312 310 309 310 310 309 309 308 309 308 308 307 307 308 307 308 307 307 307 307 307 307 307 308 308 307
332 332 331 329 327 325 322 319 317 314 311 311 309 307 306 304 302 300 297 295 295 294 293 292 292 292 291 292 292 293 292 292 293 293 293 293 292 292 292 292 291 290 293 290 294 302 308 310 312 312 312 312 313 313 313 313 312 311 310 310 310 309 308 308 308 308 308 308 307 307 307 307 307 307 306 306 307 307 306 306 307 307 307 307 307
333 332 331 329 326 325 323 321 318 315 312 311 309 307 305 303 301 299 297 295 295 293 293 292 293 292 292 291 291 292 291 292 291 292 294 291 291 291 292 291 293 295 289 288 290 293 301 305 307 309 310 311 312 313 312 312 311 310 309 309 309 309 308 307 307 307 307 307 306 307 307 306 306 306 306 306 306 305 306 306 306 306 306 306 307
333 332 331 330 327 325 323 321 317 315 312 310 308 307 305 302 299 298 297 296 295 294 293 293 294 293 291 291 291 290 290 290 290 293 291 291 291 290 290 291 291 290 291 290 290 291 292 296 300 303 305 308 310 311 312 311 310 309 309 308 308 307 308 306 306 305 305 306 306 306 306 305 305 305 305 305 305 305 306 305 306 306 305 306 305
333 330 329 328 327 325 322 320 316 315 312 309 307 306 304 302 299 298 298 296 295 294 293 294 294 293 291 290 290 290 290 291 291 290 289 290 291 292 292 291 290 290 290 290 289 289 289 288 289 291 296 303 306 309 309 310 310 310 309 308 307 306 307 306 305 305 305 305 305 305 305 305 304 304 305 304 305 305 305 305 305 305 306 306 306
332 331 329 327 327 325 322 320 317 315 312 309 306 305 303 300 299 298 297 295 294 294 294 292 291 290 290 289 289 289 289 290 289 289 289 289 289 289 289 289 289 289 290 289 290 289 289 288 290 289 292 297 300 302 304 306 307 309 309 308 307 306 305 305 304 303 304 304 304 304 304 304 304 303 304 304 304 304 304 305 305 305 305 305 305
329 329 329 325 326 324 322 320 318 315 312 309 307 306 304 301 299 298 296 294 294 293 292 292 289 288 288 287 287 288 289 288 288 288 288 288 288 288 288 289 288 288 288 289 288 288 287 288 287 288 289 289 293 297 298 300 303 307 307 307 307 306 305 304 304 303 302 303 303 303 303 303 303 303 304 304 304 304 304 303 304 304 305 305 305
328 329 326 325 323 323 322 320 317 315 313 310 308 305 303 300 298 297 297 295 293 293 292 291 289 287 286 286 285 286 287 286 287 287 287 288 288 288 288 288 288 288 288 288 287 287 287 287 287 288 288 289 289 290 291 292 296 302 304 305 306 306 305 305 303 302 302 303 303 302 303 303 303 303 303 304 304 304 304 304 303 305 305 304 305
326 325 324 323 322 321 321 320 318 315 311 309 307 304 302 300 298 297 295 296 294 294 292 292 288 288 288 285 283 283 285 285 286 286 287 288 288 288 288 288 289 288 288 287 286 286 287 287 287 287 288 288 289 289 291 294 294 296 299 302 304 305 306 305 304 303 302 302 302 302 302 302 302 302 302 303 303 303 304 304 304 304 304 305 305
326 325 323 322 321 320 320 319 317 314 312 308 306 304 301 300 300 299 297 293 292 292 293 293 291 288 284 286 284 284 280 281 281 284 285 286 287 287 288 288 288 287 287 287 286 286 286 287 287 288 288 288 288 289 289 290 295 295 295 296 299 301 303 305 304 303 302 302 302 302 302 302 302 302 302 302 302 303 303 303 304 304 304 304 304
324 324 322 321 321 320 318 318 317 315 313 309 306 304 302 300 300 299 297 295 292 292 292 294 291 292 290 287 285 285 282 282 282 282 284 285 286 286 287 287 287 287 286 286 286 286 286 286 287 287 287 287 287 287 287 288 288 290 291 295 296 298 300 301 302 302 301 301 302 301 301 301 301 301 301 302 302 302 303 303 303 303 304 304 304
322 323 322 320 320 319 318 317 316 314 313 311 308 306 302 300 300 299 298 297 294 292 291 293 294 292 293 297 290 285 284 281 282 278 283 284 285 285 286 286 286 286 286 286 286 286 286 286 286 286 287 287 287 286 286 286 289 287 288 291 295 296 298 299 300 300 300 300 300 300 301 301 301 301 300 301 301 301 302 303 303 303 304 304 303
318 320 321 320 319 319 318 317 316 314 312 311 309 306 304 302 301 300 299 298 296 292 291 291 294 293 294 298 295 294 288 283 280 278 277 281 284 284 284 286 286 286 286 286 286 285 286 286 286 287 287 288 287 286 286 287 290 290 294 295 295 295 296 296 298 298 299 299 299 300 300 301 300 300 300 300 300 301 301 302 303 303 303 302 302
315 316 318 318 318 318 317 316 315 314 311 311 309 307 305 303 301 301 300 299 297 295 292 292 292 293 294 296 294 294 288 289 286 281 279 279 280 283 283 284 285 285 286 286 286 285 285 285 286 285 286 287 286 286 286 285 284 285 288 294 294 294 295 295 296 296 297 298 298 299 299 300 300 300 300 299 300 300 301 302 303 303 302 302 302
310 313 314 316 315 316 316 315 315 314 310 311 309 307 304 302 301 300 300 301 299 299 295 294 294 295 293 295 295 294 289 289 287 286 280 279 279 279 280 283 283 284 285 286 286 285 286 286 285 285 286 286 286 285 285 285 283 283 288 292 293 294 294 294 295 296 296 296 296 297 298 298 299 299 299 299 299 299 300 301 302 301 301 301 302
307 307 309 311 313 315 315 315 314 313 309 310 308 306 304 302 301 301 301 300 300 299 297 296 296 297 295 295 294 292 290 288 287 287 284 282 280 279 280 280 279 281 284 284 285 286 286 286 284 285 285 286 285 285 284 284 283 284 286 289 291 292 293 293 293 294 295 295 295 295 295 296 297 298 298 299 299 299 300 301 301 301 301 301 301
305 304 305 306 308 310 313 314 314 311 309 310 307 305 304 303 302 302 301 301 300 300 299 299 297 297 296 296 295 294 290 287 286 287 283 281 280 280 280 280 279 280 282 284 285 285 285 284 284 285 285 285 285 284 284 283 287 286 287 287 288 290 291 291 292 293 293 294 294 294 295 294 295 296 297 298 298 299 300 301 301 300 300 301 300
304 303 302 303 304 303 304 310 311 311 309 310 309 307 305 303 302 302 301 301 301 299 300 299 297 297 297 296 296 294 291 289 287 288 287 283 282 281 280 280 280 280 283 283 284 284 284 284 284 285 285 284 283 283 285 286 285 286 285 287 287 288 289 290 292 292 292 292 292 293 294 294 294 294 295 297 297 298 299 300 300 300 300 300 300
302 303 303 301 302 302 302 304 307 309 310 309 308 307 305 304 303 301 301 300 300 299 299 300 298 297 297 297 296 294 292 289 288 288 287 285 283 280 280 280 278 280 281 281 281 282 284 283 284 284 285 284 284 284 284 286 284 285 285 287 287 288 288 288 289 290 291 291 292 293 293 293 294 294 295 295 296 296 298 299 299 300 300 300 299
302 303 304 301 301 302 302 303 305 307 308 309 307 306 306 304 303 301 301 301 300 300 300 300 299 299 298 296 295 294 291 288 288 288 286 284 282 282 281 281 279 280 281 280 280 281 281 283 284 285 284 283 283 283 284 283 284 287 286 282 283 286 288 289 289 289 290 290 291 292 293 293 293 293 294 295 295 295 296 296 298 299 299 299 299
304 303 301 300 300 300 301 302 303 304 304 306 305 304 304 304 303 302 301 301 300 300 299 299 298 297 296 296 291 289 287 286 286 287 285 285 284 283 282 280 278 279 278 280 279 280 279 281 284 284 284 284 284 283 283 281 284 288 286 281 279 286 287 289 289 290 291 291 291 292 292 292 292 293 294 294 295 294 294 295 296 297 298 298 297
305 302 300 300 299 298 299 301 301 302 302 304 304 303 301 301 299 298 299 300 298 296 295 295 296 294 293 290 289 287 285 285 285 284 283 285 285 283 282 281 279 276 278 277 278 279 281 282 283 284 284 284 284 283 285 285 283 288 286 279 279 281 286 288 290 291 291 291 291 291 292 292 292 293 293 293 293 293 293 294 295 295 295 295 295
304 302 300 298 298 298 298 299 299 300 300 300 300 300 299 296 296 296 296 294 295 295 293 295 293 291 290 289 288 286 284 284 284 284 284 284 284 283 283 281 281 278 276 276 277 277 280 282 281 283 284 284 284 284 283 280 283 286 280 280 280 279 285 287 289 291 291 291 291 291 291 291 292 292 292 292 292 292 293 293 293 294 294 294 293
304 302 301 298 297 296 295 295 295 296 297 296 296 296 296 295 294 295 296 294 294 292 293 293 291 290 289 287 286 285 283 283 282 282 282 282 282 281 280 280 280 280 277 276 277 279 279 281 280 281 282 283 284 283 282 280 285 286 280 280 279 279 285 287 289 289 290 291 291 290 291 291 291 291 291 291 292 292 293 293 293 294 293 293 294
301 299 298 295 295 294 293 292 293 293 293 294 294 293 294 294 293 294 293 293 293 293 292 292 291 289 288 286 285 284 282 282 282 282 281 281 281 281 279 281 281 280 280 278 276 281 281 281 280 281 282 282 283 281 282 281 284 285 280 279 279 283 285 285 287 288 289 290 290 290 291 292 292 291 291 291 291 292 292 292 292 293 293 293 293
299 297 296 295 294 293 293 293 292 292 291 291 292 292 291 293 292 292 292 293 293 292 290 290 290 289 287 286 285 284 282 281 281 281 281 281 281 280 280 281 281 281 281 280 278 279 281 280 280 282 282 282 282 281 280 281 283 287 280 279 280 284 282 281 285 287 287 288 289 290 291 291 292 291 291 291 291 292 292 292 292 292 292 292 292
297 295 294 294 293 291 292 292 292 291 291 291 291 292 291 292 291 291 291 292 292 290 290 289 289 288 287 286 285 284 282 281 281 280 280 280 280 280 281 281 281 281 280 279 277 277 280 281 282 282 282 282 281 281 280 280 280 282 283 280 280 279 279 279 279 283 286 287 288 289 289 291 291 291 291 291 291 291 291 291 291 291 292 292 292
295 295 294 293 291 290 291 291 291 291 291 292 291 292 292 291 292 293 291 291 291 289 289 288 288 287 286 285 284 283 282 281 280 280 280 280 280 279 280 280 281 281 280 278 278 277 277 280 280 282 281 282 280 281 280 280 280 280 280 280 280 279 279 279 279 279 284 286 287 288 289 290 290 291 291 290 291 290 291 292 291 291 292 292 291
292 293 293 291 290 291 290 290 290 290 291 291 291 291 291 292 292 291 291 291 290 288 288 288 287 286 285 284 283 282 282 280 279 279 279 279 279 279 280 280 280 279 280 280 278 277 277 278 279 280 281 281 280 279 280 281 280 280 279 279 279 280 280 279 279 279 284 286 288 289 289 290 290 290 290 291 290 291 291 291 291 291 291 291 291
291 290 290 291 290 290 289 289 289 289 289 289 289 290 291 291 291 290 290 290 289 289 289 287 286 285 284 283 282 282 281 279 278 278 278 278 279 280 280 279 280 279 280 279 279 277 278 277 278 278 279 279 279 279 279 280 280 280 280 279 279 279 279 279 279 279 282 286 288 288 289 289 290 290 290 290 290 290 290 290 291 291 290 290 289
290 290 290 290 289 288 289 288 288 288 289 289 289 289 290 291 290 290 289 289 288 288 288 287 286 285 284 283 282 281 280 278 278 278 278 278 279 280 279 279 279 280 280 280 279 279 278 278 278 279 279 279 279 278 279 278 278 278 278 278 278 278 278 279 279 280 284 286 287 288 288 289 289 290 290 290 290 290 290 290 290 290 289 289 288
289 290 290 289 288 288 288 288 287 287 287 287 287 288 289 289 289 289 289 288 288 287 286 285 284 283 282 282 281 280 279 278 278 278 278 279 280 280 279 279 279 280 279 279 279 279 278 278 278 277 278 278 277 277 277 279 277 276 276 277 277 277 277 277 278 279 280 280 280 281 284 286 287 288 289 289 289 289 289 290 289 289 288 287 287
289 289 289 289 288 288 287 287 286 286 286 286 287 287 288 288 288 288 288 287 287 286 284 284 283 282 281 281 281 280 279 278 278 278 279 279 280 280 280 280 280 280 279 279 279 278 278 278 278 278 277 277 277 277 278 277 277 277 276 276 277 278 277 278 278 279 279 279 282 285 283 282 283 283 285 286 287 288 288 288 288 288 287 287 287
289 289 288 288 288 288 287 286 286 285 285 285 286 286 286 286 286 287 287 286 285 284 283 282 282 282 281 281 280 280 279 279 279 279 280 280 280 280 280 280 280 280 280 280 279 279 278 278 278 277 277 276 277 278 278 277 276 275 276 276 275 277 277 277 277 277 278 279 278 278 282 284 285 286 287 287 287 287 287 287 287 286 286 286 286
289 288 288 288 287 287 286 286 285 285 284 285 285 285 285 285 285 286 286 285 284 283 282 281 281 281 280 280 280 280 280 281 282 282 283 283 281 280 280 281 281 280 280 280 280 279 279 278 278 278 278 278 279 278 278 277 276 277 278 277 276 277 276 276 277 278 279 278 278 279 278 279 278 279 279 279 280 283 283 285 285 285 284 285 285
287 287 287 286 287 286 285 285 285 285 285 285 285 287 287 286 286 286 285 284 283 282 281 280 280 280 280 280 281 282 282 283 283 284 285 285 285 283 281 281 281 280 280 279 279 279 279 278 277 278 278 278 279 279 278 278 278 278 277 277 276 277 276 276 278 278 278 278 278 277 278 278 278 277 277 277 278 280 279 278 278 280 281 283 284
286 286 286 285 285 285 285 284 283 284 284 285 286 288 289 289 285 284 284 283 283 282 281 281 280 279 279 280 281 282 283 283 284 286 286 286 286 285 284 284 284 282 280 280 279 280 279 279 279 279 279 279 279 279 279 280 280 279 278 277 276 276 276 275 275 278 279 277 276 275 276 276 276 276 276 276 276 277 277 277 281 283 283 284 285
285 285 285 285 285 284 284 284 284 284 284 286 288 289 289 290 287 284 284 283 282 281 281 281 280 279 279 279 280 281 281 282 283 284 285 286 286 286 286 285 285 285 285 282 280 280 280 279 278 279 279 278 279 279 279 279 279 277 276 276 276 276 276 276 276 276 277 277 275 275 276 278 277 277 277 278 278 278 278 281 283 284 285 285 284
285 285 284 284 284 284 284 284 283 283 283 286 288 289 289 290 289 285 284 284 283 282 281 280 279 279 279 279 278 279 280 282 282 282 283 283 285 285 285 285 285 286 286 286 285 282 281 280 279 279 279 279 279 279 279 277 279 276 277 277 277 277 277 276 277 277 278 278 278 278 277 279 280 278 278 279 279 278 278 281 283 284 284 284 284
285 285 284 284 283 283 283 283 283 283 282 286 288 289 289 289 289 287 284 283 283 282 281 279 279 279 278 278 278 278 279 280 280 281 281 282 282 282 282 282 282 283 285 285 285 285 284 281 280 279 280 279 279 279 278 279 277 276 276 277 278 277 277 277 279 279 280 281 279 278 276 278 279 278 277 278 278 277 277 280 282 284 284 284 284
284 284 284 284 283 283 283 283 283 283 282 286 288 288 288 289 289 287 283 283 282 281 280 279 279 279 278 278 278 279 279 280 281 282 281 281 281 280 280 280 281 281 281 282 282 282 283 283 282 281 281 281 280 280 279 278 278 279 280 279 280 280 280 281 280 281 280 281 280 278 274 277 279 277 277 278 278 277 276 279 281 282 283 283 283
284 284 284 284 283 283 283 283 283 282 282 286 288 287 289 289 289 284 283 282 281 280 279 279 279 279 279 279 279 279 279 280 282 284 283 281 280 279 278 279 279 279 280 283 284 284 283 281 281 280 280 281 283 282 283 283 282 282 282 281 279 278 277 276 275 276 276 278 278 277 275 275 278 276 276 277 276 275 276 274 278 280 281 282 282
283 283 283 283 283 283 283 282 282 282 283 287 288 288 288 289 288 283 283 282 281 279 279 279 279 279 279 279 280 279 280 280 284 286 285 283 280 279 278 278 278 278 278 280 283 284 285 285 285 285 285 285 285 285 285 285 284 283 280 278 277 278 276 274 275 276 276 277 275 277 276 274 276 276 275 276 276 275 274 274 274 278 280 281 281
282 283 283 283 283 283 282 282 282 282 283 285 287 288 288 288 285 283 282 281 280 279 278 278 278 279 280 282 282 281 281 281 286 287 286 283 280 280 279 278 277 276 277 278 279 279 283 283 283 284 284 284 284 284 284 284 284 283 280 277 278 278 276 276 274 275 276 277 277 278 274 273 275 275 273 274 275 274 274 275 275 275 278 279 279
283 283 283 282 282 283 282 282 283 282 282 284 287 288 288 288 284 283 282 280 279 278 278 278 278 279 280 282 282 282 282 283 287 287 287 284 281 280 280 278 276 275 276 277 276 276 276 276 277 279 279 281 281 280 281 283 284 283 281 280 279 277 275 275 275 275 273 274 276 277 272 272 273 273 274 271 270 273 275 273 274 273 273 273 274
Wind_Speed
7 7 8 8 8 7 7 6 7 7 6 6 6 6 7 7 6 6 6 6 6 5 6 5 6 6 5 5 5 5 6 6 6 6 6 6 7 13 17 14 14 15 17 19 20 20 19 19 17 17 16 16 18 20 20 19 18 17 18 18 18 18 18 19 19 19 19 19 19 19 19 20 20 20 20 20 20 21 21 21 22 22 23 23 22
7 6 8 8 8 8 8 7 6 6 6 6 6 6 7 7 7 7 6 6 5 6 6 6 6 5 5 5 5 5 5 6 6 6 6 6 6 9 18 17 16 17 16 15 14 15 16 17 17 18 19 19 19 18 16 16 17 17 17 18 18 18 18 18 18 18 18 18 19 18 19 19 19 19 19 20 20 20 21 21 22 22 23 23 23
7 6 6 6 6 8 8 7 6 6 6 6 6 6 5 6 7 7 7 7 6 6 6 6 6 5 4 5 6 6 6 6 6 5 6 6 6 6 11 18 20 16 15 15 15 14 14 14 15 15 15 16 16 17 16 16 16 16 17 17 17 18 18 17 17 17 17 17 17 17 18 18 18 19 19 18 19 20 20 21 21 21 21 22 22
7 7 6 6 6 7 7 7 7 7 6 6 6 5 6 6 6 6 6 6 7 6 6 6 6 5 5 5 5 6 6 6 6 5 5 5 6 6 7 9 15 19 16 14 15 14 14 14 14 14 15 15 15 15 15 15 15 16 16 16 16 17 17 17 16 16 16 16 17 17 18 18 18 18 18 18 18 19 19 20 20 20 21 21 21
6 8 7 6 6 7 5 6 6 6 7 7 5 5 5 6 7 7 6 6 7 7 6 6 6 6 6 5 6 6 5 6 6 5 4 4 6 6 6 7 7 11 16 18 15 15 15 15 14 13 12 13 13 13 14 15 15 15 15 14 14 15 15 16 15 15 15 16 16 16 16 16 16 16 17 17 18 17 18 19 19 20 20 20 20
7 8 7 6 7 7 6 5 6 6 7 8 6 5 5 6 7 7 6 7 7 6 7 7 6 5 5 4 6 6 6 5 5 5 4 5 5 5 6 5 6 6 7 12 15 15 16 16 14 13 12 11 11 11 11 12 14 14 14 13 14 14 14 13 14 14 14 14 15 15 15 15 15 16 15 16 16 17 17 18 19 19 19 19 20
9 8 7 7 8 8 7 6 6 5 7 7 7 5 5 6 6 7 6 6 6 6 7 7 7 6 5 5 6 6 5 5 5 5 5 5 6 5 5 5 6 5 5 6 9 15 17 17 16 14 12 11 10 10 10 11 11 12 13 14 13 13 13 13 13 13 13 13 13 14 14 14 14 14 14 14 15 16 16 17 17 18 18 19 20
8 8 8 7 8 8 8 7 7 6 6 7 7 7 5 5 5 7 8 6 8 6 6 7 7 6 5 5 5 5 5 6 5 5 5 6 6 5 5 5 5 6 5 6 6 9 16 16 17 16 14 12 11 10 10 11 12 11 11 12 12 12 12 12 12 12 12 13 13 13 13 13 13 14 14 14 14 15 16 16 16 17 18 18 19
7 9 9 8 7 8 8 9 8 7 7 6 7 6 7 6 6 5 6 8 8 9 6 7 7 6 6 5 5 5 5 5 4 4 4 5 4 4 4 4 4 5 4 6 6 6 11 16 15 16 14 14 13 13 12 10 10 10 10 10 11 11 11 11 11 11 12 12 12 12 12 13 13 13 13 14 14 15 14 15 16 17 17 18 19
8 8 8 9 9 9 8 10 9 8 8 7 7 7 5 6 8 5 7 7 8 10 9 7 6 6 6 6 6 6 5 4 4 4 6 4 4 4 4 4 4 4 5 4 3 5 5 9 12 12 13 14 15 14 14 12 9 9 9 9 9 9 10 9 9 10 10 11 11 11 12 12 12 12 13 13 13 14 14 14 15 16 17 17 19
8 8 8 8 9 9 9 10 9 9 9 8 8 8 7 6 8 8 5 4 6 8 10 8 7 6 6 5 5 4 4 4 5 5 5 4 4 4 4 4 4 4 4 4 4 4 5 5 5 5 7 14 14 15 14 14 12 9 8 8 8 8 9 9 9 9 9 10 10 11 11 11 12 12 12 12 13 13 13 13 14 15 16 17 18
9 8 9 8 8 9 10 11 10 10 9 9 9 9 11 10 7 10 9 5 4 6 8 10 8 8 6 6 5 5 4 4 4 4 3 3 3 3 4 3 4 4 4 4 4 4 4 4 4 5 4 8 14 14 15 15 13 13 11 7 7 7 7 8 8 8 8 9 9 9 10 11 11 11 11 12 12 12 13 13 14 15 15 16 17
9 9 9 9 9 8 10 10 10 11 11 11 12 13 12 10 9 7 12 9 5 6 6 9 11 6 6 5 4 4 3 4 4 3 3 2 3 4 3 4 3 4 3 3 4 3 4 4 3 3 4 4 7 12 14 15 13 12 11 10 8 6 7 6 8 7 7 8 8 8 9 10 10 10 11 11 11 12 13 14 14 15 15 16 17
8 8 9 10 9 9 10 11 10 8 9 10 10 8 9 8 9 7 4 10 8 9 9 10 3 7 8 4 2 2 2 3 3 2 2 2 2 3 3 3 4 4 3 3 3 4 4 4 4 4 4 5 6 5 6 7 9 12 12 11 8 6 6 7 7 7 7 7 7 8 9 9 10 10 11 11 12 12 14 14 15 15 15 16 17
8 7 8 9 10 10 9 10 11 9 8 7 9 9 9 10 11 11 9 2 4 7 11 7 8 6 5 7 2 2 1 0 1 2 3 1 2 2 2 4 4 4 4 4 4 4 3 3 4 4 3 4 5 5 5 5 7 12 12 11 9 8 7 7 7 7 7 7 7 8 8 9 9 10 10 11 12 12 13 13 14 15 15 16 17
9 8 7 9 10 10 9 9 10 10 11 10 10 10 10 10 9 6 8 10 7 8 8 5 9 13 5 3 4 4 1 6 3 2 4 4 4 3 2 3 3 4 5 5 3 3 3 3 3 3 3 3 4 5 4 4 8 9 9 8 8 7 7 6 6 7 6 7 8 8 8 8 9 10 11 12 12 13 13 14 14 15 16 16 17
9 9 8 9 9 10 10 10 10 11 10 11 11 12 13 12 13 12 13 12 10 7 9 6 8 6 10 7 2 2 7 3 7 2 3 2 3 4 3 4 3 3 4 4 4 4 3 3 3 3 3 3 4 4 5 4 5 3 3 4 6 6 6 6 6 6 7 7 8 8 8 9 10 11 12 12 13 13 14 14 15 15 16 17 17
7 9 9 8 9 10 10 10 10 10 10 10 10 10 12 13 13 12 12 10 13 10 10 6 7 8 4 3 6 6 7 5 8 5 1 3 3 3 4 4 4 3 4 4 4 3 3 3 3 2 2 2 3 4 4 4 4 2 1 0 6 6 6 6 6 7 7 7 8 8 9 9 10 11 12 13 14 14 14 15 15 16 16 17 17
6 7 8 9 9 10 11 11 11 11 11 10 11 13 12 13 12 12 12 10 10 12 13 12 4 7 7 3 3 1 7 10 6 6 2 2 4 3 3 3 4 4 4 4 4 4 3 3 3 3 2 1 2 5 5 4 4 3 3 4 4 5 4 5 6 7 7 8 9 9 10 10 11 12 13 14 14 14 15 15 15 16 17 17 18
6 6 7 8 9 9 10 11 11 10 10 10 12 11 11 10 13 15 13 11 13 13 13 12 13 10 9 5 2 2 9 2 6 9 6 7 5 2 2 4 2 3 5 5 5 5 4 3 4 3 2 1 1 4 5 4 3 2 1 2 3 3 3 3 4 5 7 8 9 10 10 11 12 13 14 14 15 15 15 15 16 16 17 17 17
5 5 6 7 8 9 9 10 10 10 10 9 9 10 13 13 12 11 10 9 10 9 11 12 10 8 9 5 5 4 6 2 7 4 5 4 1 6 4 1 2 3 4 5 5 5 5 5 4 4 4 2 1 2 4 5 5 3 1 2 2 2 3 3 4 5 5 7 8 10 11 11 12 13 14 15 15 16 16 16 16 17 16 17 18
5 4 5 5 7 8 10 11 10 10 10 10 10 10 10 10 11 11 9 9 8 9 11 10 11 7 9 8 8 5 4 3 3 5 2 5 7 9 7 9 8 5 4 5 5 5 5 5 4 4 4 4 3 2 2 4 4 3 0 1 2 2 3 4 4 5 6 7 8 9 10 11 12 13 14 15 16 16 16 16 16 17 17 18 19
5 6 5 5 5 6 9 9 9 9 10 9 9 10 10 11 11 12 9 9 6 8 7 8 8 7 8 8 9 10 9 7 7 5 4 3 4 3 4 6 6 4 5 4 4 4 5 4 5 4 4 4 4 3 3 4 4 3 2 1 2 2 3 4 4 5 6 7 8 9 10 11 11 13 14 15 16 17 17 17 17 17 18 19 20
6 6 7 6 6 5 4 8 9 8 10 9 9 10 10 10 9 10 10 11 8 6 5 9 9 7 7 7 8 6 6 6 7 7 8 5 7 7 7 4 2 3 2 3 3 5 4 5 5 5 5 4 4 4 3 4 4 5 2 3 3 4 4 4 6 6 6 8 9 9 11 11 12 13 14 15 16 17 17 17 17 17 18 19 20
8 8 8 8 7 7 7 6 7 8 9 10 10 11 10 10 11 12 11 12 12 11 10 9 10 11 9 8 8 8 8 6 7 7 6 7 8 6 3 6 5 3 2 4 2 3 5 6 6 5 5 4 4 4 4 4 4 5 4 2 4 6 5 5 6 7 7 9 10 11 12 12 13 14 14 15 16 17 17 17 17 18 19 20 20
8 9 8 8 7 7 7 6 6 7 8 9 8 9 10 10 11 12 13 12 12 13 12 10 9 10 8 8 9 8 7 6 8 8 8 8 7 9 8 3 3 4 2 3 2 2 3 5 5 5 5 4 4 4 3 3 4 8 5 3 3 6 8 8 7 8 9 10 11 13 13 14 14 15 15 16 17 17 18 18 18 18 19 19 20
7 7 7 9 9 8 8 7 6 6 6 7 8 7 8 9 9 11 11 10 12 11 10 9 9 10 11 10 8 7 7 6 8 8 8 8 9 9 10 8 3 2 3 3 3 5 3 2 5 5 5 4 4 4 3 3 5 8 7 3 3 6 9 10 11 10 11 11 12 13 14 15 15 16 16 16 17 18 18 18 18 18 18 19 20
6 7 8 9 9 8 8 8 7 7 7 7 7 7 7 8 7 7 10 7 8 7 6 7 9 8 10 8 9 7 6 6 6 7 6 8 8 8 9 9 9 3 2 3 4 5 3 3 2 5 5 5 5 5 5 5 3 8 7 3 4 4 9 10 12 12 12 13 14 14 15 16 17 17 16 17 18 18 19 19 18 18 18 19 20
7 7 8 8 7 8 8 8 7 7 7 7 6 6 5 5 6 7 8 6 8 8 6 8 6 6 8 10 10 7 6 6 6 7 7 7 8 8 8 9 8 8 4 5 6 5 3 4 4 5 5 5 5 5 5 4 5 6 4 4 4 4 7 11 13 14 14 14 15 16 17 17 18 17 17 17 18 19 19 19 19 18 19 20 21
8 7 8 9 8 9 7 7 7 7 7 7 6 6 6 6 6 7 8 7 7 5 7 7 6 5 7 7 8 7 6 7 7 7 8 8 8 7 7 5 7 8 5 6 2 3 2 2 2 3 4 6 5 4 4 5 7 6 4 4 4 4 9 12 13 14 15 16 16 17 18 18 18 18 17 17 18 19 20 20 19 20 20 21 22
8 7 7 7 8 8 8 7 7 6 5 6 6 5 6 7 7 7 6 7 7 7 6 8 7 8 8 8 7 8 7 8 7 7 7 8 7 7 7 7 6 7 6 4 4 0 3 4 2 2 5 6 4 4 3 5 6 5 4 5 5 8 11 9 14 15 16 16 17 17 17 18 18 18 18 18 19 20 20 20 20 20 21 22 22
7 7 8 8 8 8 7 7 7 7 6 6 6 6 5 6 7 7 7 8 8 8 7 6 7 8 9 9 8 8 8 8 7 7 8 7 7 7 7 7 6 5 6 4 4 3 1 4 3 2 4 6 5 5 4 4 4 7 5 6 7 8 7 6 11 15 16 17 17 17 17 18 19 19 18 19 20 20 20 21 21 21 21 22 22
7 8 8 8 8 7 8 8 8 8 8 8 7 7 7 7 6 7 7 8 9 7 7 7 6 8 9 10 8 8 9 10 8 7 8 8 8 7 7 7 6 5 6 4 5 4 1 1 3 3 4 5 3 5 5 5 5 5 6 7 6 6 6 7 7 11 16 17 17 18 18 19 19 18 18 19 19 19 20 20 21 20 20 21 21
8 9 9 8 7 8 8 8 8 8 8 8 7 8 8 7 8 6 7 8 8 8 8 9 9 8 10 11 10 9 8 10 9 9 9 8 8 8 7 7 6 5 3 3 3 2 1 0 2 2 3 4 3 3 7 7 7 4 6 7 6 6 7 7 7 7 14 16 17 18 18 19 19 19 19 19 19 19 19 20 20 20 20 21 20
6 8 8 8 8 8 8 7 8 7 8 8 7 8 9 10 9 8 8 9 9 10 10 11 11 10 10 10 10 10 8 9 8 8 8 9 8 9 8 7 7 6 5 4 4 2 2 2 3 3 4 4 6 5 6 7 6 6 7 7 7 6 6 7 8 7 11 16 18 18 19 19 19 19 19 19 19 19 19 20 21 21 21 20 21
7 5 6 7 7 8 8 7 7 7 8 7 8 8 10 10 9 9 8 8 8 10 11 11 11 10 11 12 11 11 10 11 9 8 8 8 9 8 8 6 7 6 5 5 4 3 1 2 2 4 2 5 5 4 5 5 6 6 7 7 5 6 7 7 8 8 10 16 18 20 20 19 19 19 20 20 20 20 20 21 21 21 21 20 22
6 6 5 5 7 7 8 8 8 9 9 9 9 9 9 9 10 9 8 8 8 9 8 10 12 13 11 11 12 12 11 12 8 9 9 10 8 8 8 7 7 6 5 5 3 2 3 4 3 2 2 3 3 4 5 5 5 5 5 7 7 7 9 8 6 8 11 17 19 20 19 19 20 20 20 20 20 20 21 21 21 21 20 21 22
7 7 8 7 7 8 7 8 8 9 8 8 9 9 9 8 8 8 8 8 8 9 9 9 10 11 12 12 13 13 13 14 11 10 10 11 9 8 8 7 6 6 6 4 4 3 3 4 4 5 3 3 3 4 5 5 6 6 7 7 6 6 7 8 7 6 6 6 6 8 11 14 18 22 21 20 21 21 21 21 21 21 21 22 23
8 8 7 7 6 7 7 7 8 8 8 8 8 8 8 8 8 8 9 9 9 9 9 10 9 9 10 11 11 12 12 12 13 12 11 10 8 9 9 8 7 7 6 5 4 4 3 4 4 5 4 3 4 6 5 4 6 7 6 8 10 6 6 8 10 5 4 7 9 13 13 12 14 12 15 20 22 22 21 21 20 21 20 22 24
8 8 8 8 7 7 7 7 6 6 6 7 7 7 7 8 8 8 9 9 9 9 8 8 8 9 10 10 10 10 12 12 13 12 12 10 8 8 7 7 7 7 6 5 4 4 4 4 5 5 4 4 5 4 2 1 4 5 5 7 11 11 8 6 6 7 4 5 7 7 10 13 14 17 19 20 21 20 20 19 18 19 19 20 23
6 7 7 7 7 7 6 6 6 6 7 7 7 8 8 8 8 9 9 9 9 9 9 8 7 8 8 7 8 9 12 14 17 14 10 9 10 9 6 7 7 6 5 4 4 4 4 4 5 3 4 6 6 5 6 5 6 9 6 4 8 8 7 8 7 6 6 7 7 7 7 6 7 8 7 7 8 11 13 17 14 19 20 21 22
7 7 7 7 8 8 7 7 7 6 6 5 8 12 9 8 8 7 7 8 8 9 10 10 8 7 8 7 8 15 16 17 17 15 14 12 10 11 10 8 8 6 6 5 5 5 5 5 4 4 5 7 6 4 6 5 4 5 7 5 8 7 6 8 10 4 5 6 7 7 7 5 5 8 7 7 6 7 7 7 7 10 13 18 21
8 7 7 8 7 7 8 8 7 6 6 5 11 12 13 12 8 7 8 8 8 8 9 11 12 10 8 8 9 13 15 14 13 16 14 14 14 13 13 11 9 9 7 6 6 6 5 4 3 4 6 8 7 3 5 7 5 5 6 6 6 6 7 9 13 10 1 4 3 4 6 3 1 6 7 6 6 7 7 7 11 15 17 22 25
6 7 7 7 7 7 6 7 7 6 6 7 10 11 12 12 9 7 7 7 7 9 9 10 10 11 11 10 9 8 9 11 11 11 13 14 14 14 14 13 12 10 9 7 6 5 4 4 5 6 4 7 8 3 5 6 6 4 4 5 5 7 10 11 11 11 4 5 3 7 11 8 4 7 10 11 7 6 8 10 16 18 24 26 24
7 7 7 7 7 6 7 7 7 7 6 9 12 12 12 13 12 10 7 7 8 8 9 8 9 10 10 10 9 7 8 13 10 9 9 9 11 13 11 11 10 11 11 11 9 6 3 5 6 8 5 5 9 5 1 3 4 8 7 8 8 8 9 11 11 11 9 4 8 11 13 12 9 10 11 12 9 7 8 11 17 21 24 22 22
7 7 6 7 6 7 7 7 6 5 5 6 9 9 9 11 11 8 6 7 7 8 9 10 10 11 12 12 11 9 8 8 8 9 8 8 7 6 6 5 5 6 9 10 10 9 7 6 6 8 5 3 7 6 3 3 6 7 7 10 9 9 10 12 12 12 10 7 8 10 11 12 9 9 11 11 8 7 8 10 18 20 22 23 23
8 8 8 8 7 6 6 5 5 5 5 9 12 12 12 13 14 9 7 7 8 8 9 9 10 12 11 12 12 12 10 8 7 9 9 8 7 6 5 5 5 4 4 3 4 4 5 5 6 7 7 4 6 6 4 3 5 6 8 9 9 8 10 11 11 11 11 6 7 6 11 11 8 9 11 11 8 8 7 9 15 18 20 22 22
5 5 5 6 7 7 6 7 6 6 6 13 14 14 14 15 16 8 8 8 8 8 8 9 8 9 10 11 11 11 10 9 10 13 10 8 7 6 5 4 3 2 1 2 4 5 5 5 5 6 5 5 9 7 7 6 5 5 6 6 5 6 9 10 11 10 10 6 4 6 8 9 8 9 10 9 8 9 7 6 8 15 18 20 21
7 7 7 6 6 7 7 7 7 5 5 11 15 16 16 18 12 7 8 8 8 9 9 9 8 8 8 9 10 10 10 8 11 13 13 10 6 6 4 2 2 2 2 3 6 9 10 11 11 12 13 14 14 15 15 16 11 9 7 7 8 6 8 10 10 9 9 6 1 3 6 9 7 8 9 9 9 10 8 7 5 10 16 19 20
6 6 6 6 6 6 7 7 6 6 5 9 15 16 17 16 10 9 8 8 7 7 7 7 6 6 7 11 11 11 10 9 14 13 14 9 5 4 3 2 1 1 1 2 2 2 6 7 8 10 11 11 13 14 14 15 15 10 6 8 9 7 8 8 10 9 9 7 4 6 6 8 9 8 10 8 10 7 7 7 7 7 12 13 16
5 5 5 6 5 5 5 5 7 7 5 8 13 14 15 16 11 7 7 7 8 7 8 6 4 6 6 7 11 10 9 11 15 13 13 8 4 4 3 2 1 1 2 2 1 1 2 2 3 3 4 8 7 7 8 14 15 12 7 7 6 6 8 8 9 9 9 6 2 7 8 9 10 9 9 9 9 10 5 3 5 4 2 2 5
Wind_Direction
168 157 161 169 175 161 153 170 174 178 162 165 144 131 128 130 130 123 110 101 91 83 79 69 62 56 61 61 58 55 59 66 64 61 53 43 34 29 26 34 68 81 94 96 94 94 94 94 92 91 87 82 82 80 76 76 74 71 69 68 67 64 63 63 61 59 56 55 54 53 50 49 47 45 44 43 42 42 40 40 39 38 36 34 33
170 170 168 176 171 153 156 179 178 166 154 153 147 140 146 144 133 128 120 108 93 86 83 76 64 56 52 63 58 59 57 65 68 63 63 52 39 36 32 28 43 71 71 77 90 98 93 93 95 93 89 91 87 79 76 76 75 72 70 68 65 64 61 61 61 59 57 55 53 51 49 47 46 44 44 43 42 40 39 37 37 36 34 32 32
171 174 174 172 161 155 162 174 169 164 154 147 140 147 149 140 134 129 124 117 113 104 97 87 76 61 56 64 66 59 54 50 59 63 61 53 50 42 38 34 36 40 76 82 87 84 92 95 93 91 90 90 87 82 81 78 75 71 68 68 67 63 61 58 57 58 56 55 52 51 49 47 45 45 43 42 42 40 38 37 36 36 34 32 29
172 177 177 166 160 163 161 167 169 159 142 141 142 146 141 136 125 120 121 117 114 109 98 92 82 77 68 63 61 67 61 61 64 66 71 73 61 59 50 45 36 37 39 79 83 83 82 82 82 90 93 87 88 87 81 75 71 69 68 68 67 65 63 59 55 54 54 52 50 50 48 47 46 44 43 40 40 40 38 36 34 33 32 30 28
179 178 182 172 159 167 163 170 163 152 142 140 134 125 126 119 115 118 115 113 110 105 98 93 89 74 71 66 69 65 68 66 61 61 68 70 75 70 66 51 50 31 35 38 67 82 76 79 82 81 85 95 92 86 84 81 73 70 67 63 61 63 61 60 57 54 52 51 50 49 49 47 46 44 43 40 38 38 37 36 31 31 30 27 27
181 181 180 175 170 166 161 166 164 150 141 137 132 133 133 128 131 123 125 119 117 114 109 97 95 83 75 76 70 69 68 62 58 58 58 54 53 64 69 78 60 53 39 36 44 65 71 70 73 77 83 83 84 86 82 81 82 78 71 66 59 59 57 57 56 55 53 49 49 48 47 47 45 43 40 40 37 37 35 34 31 30 27 23 23
181 180 183 175 179 167 159 170 159 140 143 139 133 131 138 141 135 125 121 117 117 117 117 116 109 104 93 86 86 84 71 75 65 63 58 55 54 53 53 61 71 67 52 50 36 48 59 67 67 68 71 77 90 88 84 84 84 82 75 68 60 56 57 56 57 53 51 50 48 47 47 44 44 42 41 36 36 36 31 30 30 25 24 20 19
176 177 184 179 177 173 170 165 162 143 146 142 139 146 156 143 142 144 133 142 129 121 117 117 115 110 102 90 89 81 75 58 55 53 61 62 63 55 53 59 86 86 77 60 56 51 58 61 63 65 71 75 75 80 87 84 84 82 78 81 73 62 55 55 53 51 49 47 46 45 44 42 41 41 37 34 31 33 30 27 22 22 20 17 16
181 172 181 186 174 173 171 168 163 156 154 148 146 149 157 148 145 154 144 146 138 129 124 120 114 107 102 93 85 86 80 86 75 75 66 73 72 68 48 43 60 86 97 86 72 59 58 60 60 61 65 73 73 65 63 80 85 80 80 75 76 70 66 58 52 51 48 44 43 43 41 38 37 36 34 29 26 26 23 24 16 18 16 14 15
190 174 179 185 177 174 170 167 165 159 157 153 149 149 156 154 147 155 154 149 149 140 136 125 113 107 93 91 82 78 79 83 82 70 71 65 64 75 70 55 56 57 66 75 81 78 70 56 55 50 56 63 65 63 60 55 65 76 76 77 71 74 68 63 53 50 47 43 40 39 37 34 33 29 30 24 23 21 20 20 13 14 13 10 10
193 177 177 182 180 174 168 167 166 163 160 159 147 153 159 167 158 149 151 146 156 142 136 128 116 103 90 78 81 73 64 58 73 75 75 76 74 70 71 53 57 55 63 61 59 68 77 76 67 59 52 64 65 64 59 55 49 46 70 72 74 65 72 61 54 44 43 43 39 36 34 29 30 23 23 19 17 15 12 14 9 10 9 7 5
195 181 181 179 183 175 171 172 171 166 167 166 162 163 171 168 171 152 139 111 103 126 128 120 100 93 86 65 66 74 62 77 72 89 99 109 111 87 92 81 74 74 67 62 66 66 86 108 101 95 73 65 67 61 54 52 52 46 41 43 70 70 66 74 59 46 42 37 36 33 29 28 22 19 19 11 12 10 3 6 5 3 4 2 359
192 181 183 176 179 175 172 179 179 173 172 178 175 174 174 168 157 160 146 139 136 133 135 126 121 90 74 75 62 74 79 92 83 65 74 71 95 101 107 92 84 79 78 71 71 69 67 70 76 85 90 78 58 58 54 45 47 54 48 48 47 52 59 60 62 46 36 35 30 29 25 25 17 14 8 5 4 3 355 2 360 355 359 355 353
188 183 179 174 171 174 175 176 174 182 179 174 168 163 158 157 151 138 163 149 152 159 157 131 123 152 146 128 50 35 83 92 95 80 54 59 88 118 131 131 116 115 98 83 68 72 67 64 62 63 76 89 83 73 61 48 36 47 49 49 47 52 68 59 58 54 39 32 27 27 23 21 16 8 2 358 357 356 354 353 353 351 352 351 349
182 173 174 175 170 172 178 174 177 171 163 162 156 150 160 165 168 158 156 134 138 167 171 178 133 115 101 95 159 143 290 33 121 147 137 151 109 136 138 133 147 151 142 107 91 78 71 70 68 61 54 80 105 100 89 79 66 48 42 39 42 47 47 55 56 53 42 26 30 28 21 15 10 2 357 355 352 352 349 347 346 348 348 346 343
183 174 175 177 170 174 171 175 178 175 172 163 166 163 162 166 167 174 155 144 161 184 198 196 147 135 145 182 155 117 291 247 182 231 167 178 173 163 150 150 166 158 127 127 129 108 93 84 76 65 60 66 88 107 118 118 82 62 46 31 34 44 42 48 49 52 40 27 24 23 19 10 4 358 353 351 350 346 343 341 344 343 343 341 339
182 184 177 181 176 173 175 180 180 181 177 173 171 172 173 175 175 169 181 166 167 174 196 201 184 176 134 130 116 204 219 189 137 257 162 180 205 170 174 160 180 179 129 131 118 117 120 95 88 73 74 66 78 82 73 77 67 57 21 28 46 42 38 32 35 33 30 22 15 10 10 1 360 353 350 347 345 342 337 338 339 339 338 336 336
180 184 186 179 178 177 176 177 182 181 180 178 177 173 177 176 184 181 187 191 165 168 179 212 198 212 214 107 156 172 177 165 134 215 113 205 198 180 171 183 184 165 132 130 133 135 121 117 105 97 80 89 105 94 83 78 83 69 339 358 64 47 36 27 21 19 15 12 7 2 360 354 354 349 346 344 340 336 334 335 337 335 334 334 337
190 183 188 186 180 179 178 181 182 184 183 180 181 183 183 185 183 187 194 182 169 172 179 186 191 221 214 147 120 167 137 140 184 104 154 264 184 174 194 196 177 149 150 158 156 141 138 130 135 136 140 129 117 118 113 120 128 105 64 72 65 53 42 29 19 10 5 0 358 355 351 350 347 345 341 338 335 332 332 332 333 330 330 334 335
189 186 186 185 185 181 181 181 183 185 180 187 188 186 184 190 192 194 190 188 184 179 180 180 181 196 203 160 122 80 159 158 150 158 150 160 210 230 193 185 200 187 162 165 160 154 155 156 150 156 142 143 106 138 140 145 112 82 344 55 70 64 36 24 16 10 1 353 350 346 345 344 342 339 336 332 330 329 329 329 327 326 329 332 330
194 188 188 185 184 184 184 186 184 182 182 188 189 184 186 183 186 193 197 199 195 191 177 187 191 184 172 175 145 159 178 221 156 135 131 121 171 183 187 189 180 244 191 165 168 158 164 165 171 170 158 153 151 138 146 137 127 122 26 36 36 23 5 6 0 359 349 345 340 338 337 338 336 332 329 327 325 326 325 323 323 324 327 326 323
199 194 190 188 185 184 188 188 186 179 181 186 182 183 185 185 189 193 193 198 202 196 190 187 191 181 187 171 170 156 169 213 185 181 114 133 160 190 184 170 184 231 191 169 165 165 160 159 163 161 160 175 177 174 124 121 128 119 315 5 356 1 346 346 341 344 335 332 329 328 327 327 326 323 322 322 322 321 320 319 321 323 323 321 318
186 197 195 193 192 188 189 189 183 176 181 184 185 186 187 188 188 188 194 203 212 209 198 195 190 180 175 175 180 176 174 176 197 177 144 135 86 144 157 185 172 161 207 175 159 163 157 158 165 191 186 174 175 172 143 133 119 130 190 274 306 317 322 324 324 321 323 316 318 318 317 314 312 313 313 315 317 315 315 317 318 319 318 315 317
187 191 196 194 189 199 203 182 179 174 183 186 185 188 186 186 186 192 197 197 196 207 210 189 186 186 182 184 186 178 177 169 188 171 164 174 142 159 158 156 161 180 171 152 162 160 177 175 186 186 196 172 180 181 162 145 150 161 197 248 275 293 306 307 308 311 307 307 305 305 303 302 303 302 304 307 308 309 310 312 313 313 312 313 316
194 192 199 186 182 188 198 185 170 176 180 185 187 185 184 185 188 191 197 197 197 194 198 202 188 189 188 186 184 187 192 183 162 174 166 136 134 128 185 160 150 142 169 143 191 199 188 193 186 194 184 180 182 172 163 156 165 179 181 241 254 268 277 289 297 296 295 295 296 293 294 294 294 296 299 299 299 302 305 306 307 307 308 311 314
189 199 188 180 187 193 195 195 180 174 179 186 183 187 186 188 190 193 198 201 198 198 200 196 191 188 171 172 185 188 190 172 168 164 163 131 143 147 145 170 104 138 143 164 200 133 260 203 196 183 180 178 182 177 183 180 158 185 176 190 270 272 265 265 273 284 285 286 288 288 288 289 289 292 292 292 295 299 301 302 301 303 307 309 311
195 192 169 180 188 188 194 194 190 185 183 183 179 178 184 189 195 199 200 200 200 195 196 190 189 179 176 175 172 168 168 157 142 158 150 151 151 152 143 133 88 102 157 189 200 209 199 200 183 188 179 186 180 183 192 205 175 185 190 196 225 258 263 261 269 274 281 285 285 286 286 286 287 288 287 288 292 296 297 297 299 303 305 306 308
191 175 187 186 188 189 188 195 192 191 190 190 184 181 183 179 183 188 199 189 189 187 186 179 184 177 165 147 138 157 151 136 124 126 122 137 140 146 144 146 142 165 161 177 197 243 176 151 216 193 184 188 188 179 200 194 170 189 190 203 229 250 259 263 269 275 280 283 284 286 286 285 285 284 284 286 288 291 292 295 297 298 299 300 303
193 188 185 189 187 186 189 188 185 188 185 188 182 184 181 185 185 184 193 194 178 187 170 173 181 166 156 152 146 144 138 121 110 111 116 118 134 144 151 157 159 138 160 180 221 203 232 173 163 223 180 185 188 192 184 192 199 186 203 212 227 238 250 263 274 279 281 281 284 286 286 283 281 281 281 282 285 287 289 291 293 294 295 298 299
191 190 182 180 182 181 183 185 183 182 187 184 183 182 176 184 190 197 196 180 178 169 169 160 159 145 137 133 136 130 137 120 128 125 120 124 119 122 121 127 139 146 157 159 195 172 170 222 138 185 190 194 184 197 177 204 225 211 206 216 227 242 256 266 273 278 278 279 284 286 283 280 277 277 278 279 280 284 288 290 292 293 295 296 297
178 177 170 175 177 179 177 177 173 181 181 184 177 176 180 184 188 192 186 180 173 175 174 160 158 141 142 141 138 132 134 125 122 116 113 110 113 106 104 96 91 121 128 125 112 244 140 178 223 170 169 193 182 184 194 206 223 208 211 225 236 241 251 261 266 271 273 276 281 280 277 276 277 277 278 278 279 282 287 290 291 291 292 294 296
179 168 174 179 179 179 179 175 177 176 181 185 177 178 174 188 184 185 187 177 177 175 170 163 154 149 145 146 152 145 140 125 121 117 111 107 112 107 106 101 96 103 110 106 116 134 120 172 172 176 168 172 176 180 214 228 225 204 216 229 237 238 249 253 260 263 268 273 276 277 276 276 276 277 276 275 276 280 285 288 290 290 291 293 294
168 173 177 178 177 177 176 179 179 178 183 185 183 178 180 185 188 186 182 178 172 170 158 161 156 152 150 149 154 151 141 129 131 124 114 116 106 105 107 104 98 88 100 103 116 123 65 111 137 171 181 150 191 190 211 228 240 233 226 236 237 240 244 247 250 254 259 266 271 275 275 275 276 277 275 272 273 277 282 286 287 287 286 289 292
173 177 180 178 175 173 177 181 180 180 186 188 181 177 181 187 191 184 182 176 170 164 161 161 163 161 154 150 152 149 142 132 134 128 128 121 119 112 109 111 109 96 106 108 118 118 203 15 78 105 162 171 190 195 199 224 242 223 231 240 243 231 242 247 245 248 250 258 265 268 270 271 273 273 272 270 272 276 281 284 286 285 283 284 287
178 179 177 173 175 174 177 179 179 181 184 185 187 183 186 188 189 189 184 182 173 166 171 171 166 158 154 153 152 143 133 127 130 129 125 121 119 116 118 116 117 110 89 101 110 113 144 256 172 165 195 212 200 223 217 222 229 217 229 239 233 237 237 238 242 249 250 255 261 265 268 270 271 271 270 271 272 275 278 281 282 281 280 280 284
175 176 170 175 173 174 176 175 177 181 182 184 183 191 191 188 186 185 183 182 179 179 178 171 163 162 163 154 154 146 140 131 135 128 121 120 120 120 117 118 115 115 112 97 96 138 150 170 266 186 217 188 248 234 233 232 220 231 229 247 247 247 250 244 242 248 248 251 258 263 266 268 269 270 271 272 273 274 275 277 278 278 278 279 284
172 165 176 172 171 172 177 179 181 184 188 184 185 190 192 191 186 180 182 182 177 180 181 176 168 162 164 163 153 146 141 131 134 128 131 124 126 122 123 123 120 120 112 111 112 112 154 215 259 253 231 251 219 219 211 218 254 253 255 249 251 248 254 250 240 246 250 253 257 260 262 264 266 268 269 270 271 272 273 274 275 276 278 284 287
172 178 175 178 176 178 181 186 185 187 182 183 187 189 190 187 181 177 175 178 180 178 177 177 173 168 165 162 157 150 146 141 142 136 133 130 126 127 126 128 127 123 122 127 135 157 182 219 228 278 268 246 290 245 221 226 244 265 274 267 261 252 257 269 252 245 247 246 247 256 262 261 262 264 266 268 269 271 271 272 273 275 281 286 289
179 180 179 175 178 176 187 182 183 182 180 178 183 186 184 184 183 178 177 180 177 177 177 174 170 166 161 159 158 152 145 141 140 142 136 133 135 137 138 135 135 131 135 149 155 173 191 228 251 243 265 264 224 258 254 210 227 234 253 286 282 249 234 257 274 260 238 247 252 248 244 239 247 250 253 260 264 266 269 270 271 277 281 286 289
183 179 176 177 179 181 186 184 183 176 172 177 181 183 186 186 184 183 181 180 178 174 170 165 162 163 163 162 156 148 143 144 140 141 140 142 139 133 137 133 137 137 147 154 163 177 206 227 239 256 257 258 272 264 281 213 264 275 233 239 270 284 277 253 240 262 262 244 253 255 254 255 256 259 259 259 261 263 265 267 272 277 280 282 285
176 176 170 169 166 177 176 175 178 178 178 182 181 181 185 187 181 181 181 181 175 167 159 154 154 147 146 149 145 141 144 142 140 142 144 143 140 136 148 143 144 147 151 159 171 186 214 222 246 253 262 266 263 273 274 248 239 259 261 227 261 274 283 288 275 231 235 256 260 257 262 242 251 257 252 253 259 262 266 270 274 278 278 279 280
171 167 164 167 174 176 171 175 181 182 186 186 187 189 192 191 185 178 171 172 169 165 155 143 136 139 142 142 143 140 139 136 138 143 144 140 136 145 156 155 154 154 161 164 179 196 206 220 229 234 261 263 261 252 268 258 249 273 286 280 276 287 296 287 287 255 209 241 269 272 269 266 254 268 264 258 263 260 258 257 255 256 263 271 283
167 165 163 172 175 171 176 177 177 183 185 187 187 193 194 190 179 172 171 168 162 159 156 151 148 143 134 135 138 137 133 132 139 142 138 135 136 140 150 157 161 160 161 172 194 196 207 222 218 230 252 269 268 248 264 282 283 279 280 285 286 308 303 305 299 306 216 151 256 289 293 304 256 275 279 267 258 262 259 255 255 265 275 289 294
166 159 171 176 170 171 170 174 180 180 184 179 181 193 195 192 177 166 159 157 157 160 163 157 151 145 143 139 138 136 133 137 139 137 138 136 137 143 151 160 170 174 176 174 186 198 192 211 241 240 242 266 278 273 285 294 297 307 302 304 300 303 300 294 291 292 300 59 0 312 294 288 261 265 282 280 267 253 260 259 269 278 291 295 294
157 169 175 164 170 164 166 173 181 180 183 180 185 192 193 186 166 157 159 155 154 156 151 151 148 142 143 140 136 131 134 138 138 139 140 142 146 154 163 171 184 191 201 208 205 190 175 222 246 263 237 269 283 287 290 301 328 310 308 299 299 295 290 287 284 291 293 326 315 298 293 295 297 286 280 278 281 268 268 273 281 289 293 293 293
166 167 163 163 158 169 173 176 175 170 168 169 171 179 185 179 167 145 140 146 149 151 155 164 157 152 152 148 143 143 152 150 148 146 141 141 146 154 165 175 182 206 219 229 235 233 224 226 239 257 261 225 269 286 294 312 304 294 300 292 295 290 285 279 287 289 294 305 291 296 286 289 292 289 282 285 286 276 272 272 278 287 295 296 296
168 170 169 169 172 170 171 167 169 175 171 175 178 183 187 187 175 145 148 150 155 157 162 165 161 157 156 152 150 151 155 155 160 154 144 146 148 154 162 170 178 184 188 208 219 225 231 237 243 251 264 252 262 279 283 263 248 260 267 276 285 289 292 295 293 289 290 284 280 278 281 287 293 287 285 291 292 284 279 279 284 289 292 294 295
154 150 151 152 159 166 170 167 165 173 171 177 177 181 179 177 170 151 154 152 150 151 156 159 160 159 157 152 148 149 153 159 165 153 142 143 144 156 168 172 165 150 164 201 225 234 221 218 224 237 243 253 274 278 283 285 285 290 289 294 304 300 295 293 290 297 288 291 238 257 275 283 292 287 289 291 293 286 284 279 279 284 287 292 294
160 164 167 164 161 161 163 168 166 165 165 174 173 173 176 179 159 151 152 151 151 151 152 155 158 160 157 151 145 148 151 154 161 156 151 142 147 160 168 172 151 134 188 207 233 244 254 262 268 277 285 291 297 301 302 303 301 300 295 293 287 282 282 284 283 289 291 314 293 246 287 296 311 308 303 298 295 289 290 283 265 271 277 286 292
164 164 154 146 150 158 161 166 163 154 162 173 173 176 179 175 149 153 151 143 140 134 132 135 144 147 143 143 143 144 149 154 163 160 160 149 150 160 163 166 150 147 201 207 177 222 244 259 270 274 278 280 283 285 291 290 287 282 262 267 273 278 280 287 297 302 302 309 333 3 332 306 317 315 304 296 291 277 277 280 277 256 266 277 284
146 139 141 141 143 147 156 152 152 149 157 179 178 179 176 165 145 151 143 136 131 135 133 129 126 134 131 136 141 142 144 154 160 163 164 157 145 158 166 147 166 172 220 173 189 218 238 242 256 245 259 262 262 261 256 263 271 278 280 282 292 294 290 294 293 295 294 309 20 18 326 310 314 311 313 312 295 296 290 246 290 314 320 343 298